Estación meteorológica de Els Cortals - St. Hilari Sacalm (La Selva, Guilleries)

Consulta los datos en tiempo real de la estación meteorológica de Els Cortals - St. Hilari Sacalm





Hora UTC 20:10
Temperatura 9.6 ºC
Humedad 69.0 %
Presión 1008.0 hPa
Pluja 0.2 mm
Velocidad viento 0.0 km/h
Dirección viento E

Datos diarios 2026-05-06



Hora UTC (invierno +1h; verano +2h)
Temperatura (ºC) Humedad (%) Presión (hPa) Velocidad viento (km/h) Precipitación (mm)
Hora UTC Aire Humedad Presión Vel. Dir. Vel. Max Dir. Intent. máx 5 min.
00:05 8.1 83.0 1004.4 11.3 W 11.3 0.0
00:10 8.1 83.0 1004.4 11.3 WSW 16.1 0.3
00:15 8.1 83.0 1004.4 9.7 W 16.1 0.0
00:20 8.1 84.0 1004.4 9.7 W 16.1 0.0
00:25 8.1 84.0 1004.4 8.0 WSW 16.1 0.0
00:30 8.1 84.0 1004.4 8.0 W 16.1 0.0
00:35 8.1 84.0 1004.4 8.0 W 14.5 0.0
00:40 8.0 84.0 1004.4 6.4 W 12.9 0.0
00:45 7.9 84.0 1004.4 8.0 WNW 14.5 0.0
00:50 7.9 84.0 1004.4 6.4 WNW 14.5 0.0
00:55 7.9 83.0 1004.3 9.7 W 12.9 0.0
01:00 7.9 83.0 1004.3 8.0 WNW 16.1 0.0
01:05 7.8 83.0 1004.3 9.7 W 16.1 0.0
01:10 7.8 83.0 1004.3 9.7 W 16.1 0.0
01:15 7.8 83.0 1004.3 8.0 W 19.3 0.0
01:20 7.7 83.0 1004.2 8.0 NNW 19.3 0.0
01:25 7.6 83.0 1004.3 9.7 W 17.7 0.0
01:30 7.6 83.0 1004.2 11.3 WNW 16.1 0.0
01:35 7.6 83.0 1004.2 9.7 W 17.7 0.0
01:40 7.5 83.0 1004.2 9.7 W 19.3 0.0
01:45 7.4 83.0 1004.1 11.3 W 19.3 0.0
01:50 7.3 83.0 1004.0 8.0 WNW 17.7 0.0
01:55 7.3 83.0 1004.0 9.7 W 17.7 0.0
02:00 7.3 83.0 1004.0 11.3 WSW 17.7 0.0
02:05 7.2 82.0 1004.0 11.3 WSW 16.1 0.0
02:10 7.2 82.0 1004.0 9.7 WSW 14.5 0.0
02:15 7.2 82.0 1004.0 11.3 W 14.5 0.0
02:20 7.1 82.0 1003.9 11.3 WSW 14.5 0.0
02:25 7.1 82.0 1004.1 8.0 WSW 12.9 0.0
02:30 7.0 81.0 1004.1 6.4 WSW 11.3 0.0
02:35 7.0 82.0 1004.1 8.0 WSW 11.3 0.0
02:40 6.9 81.0 1004.0 6.4 WSW 11.3 0.0
02:45 6.9 81.0 1004.1 9.7 WSW 9.7 0.0
02:50 7.0 81.0 1004.2 3.2 WSW 14.5 0.0
02:55 7.0 81.0 1004.1 9.7 NW 14.5 0.0
03:00 7.0 81.0 1004.2 12.9 WSW 16.1 0.0
03:05 7.0 81.0 1004.2 6.4 WSW 16.1 0.0
03:10 6.9 81.0 1004.2 9.7 WSW 16.1 0.0
03:15 6.9 81.0 1004.1 9.7 WSW 12.9 0.0
03:20 6.8 80.0 1004.1 4.8 WSW 12.9 0.0
03:25 6.7 80.0 1004.1 9.7 W 12.9 0.0
03:30 6.6 80.0 1004.0 6.4 WSW 11.3 0.0
03:35 6.5 80.0 1004.1 8.0 WSW 11.3 0.0
03:40 6.4 79.0 1004.1 8.0 WSW 9.7 0.0
03:45 6.4 79.0 1004.0 3.2 W 9.7 0.0
03:50 6.4 78.0 1004.2 9.7 W 11.3 0.0
03:55 6.4 78.0 1004.1 6.4 WSW 11.3 0.0
04:00 6.4 78.0 1004.1 3.2 WSW 9.7 0.0
04:05 6.3 78.0 1004.1 8.0 WSW 8.0 0.0
04:10 6.2 78.0 1004.1 6.4 W 9.7 0.0
04:15 6.1 78.0 1004.1 8.0 WSW 9.7 0.0
04:20 6.1 78.0 1004.1 8.0 W 9.7 0.0
04:25 6.2 77.0 1004.1 8.0 W 12.9 0.0
04:30 6.3 77.0 1004.1 8.0 WNW 12.9 0.0
04:35 6.3 78.0 1004.2 8.0 W 16.1 0.0
04:40 6.2 78.0 1004.2 4.8 WSW 16.1 0.0
04:45 6.2 78.0 1004.3 9.7 WSW 12.9 0.0
04:50 6.1 77.0 1004.3 9.7 W 16.1 0.0
04:55 6.0 77.0 1004.3 8.0 W 16.1 0.0
05:00 6.0 76.0 1004.3 6.4 W 12.9 0.0
05:05 6.1 76.0 1004.4 6.4 W 14.5 0.0
05:10 6.1 76.0 1004.4 6.4 W 14.5 0.0
05:15 6.2 76.0 1004.4 8.0 WSW 12.9 0.0
05:20 6.3 76.0 1004.5 4.8 WSW 11.3 0.0
05:25 6.5 77.0 1004.8 6.4 W 11.3 0.0
05:30 6.7 78.0 1004.7 6.4 W 11.3 0.0
05:35 6.9 79.0 1004.8 1.6 W 11.3 0.0
05:40 7.1 80.0 1005.0 8.0 WSW 11.3 0.0
05:45 7.2 81.0 1005.0 3.2 WSW 11.3 0.0
05:50 7.4 82.0 1005.1 6.4 W 11.3 0.0
05:55 7.5 82.0 1005.2 3.2 W 11.3 0.0
06:00 7.7 83.0 1005.3 8.0 W 11.3 0.0
06:05 7.8 83.0 1005.3 6.4 W 11.3 0.0
06:10 7.9 83.0 1005.3 9.7 WNW 11.3 0.0
06:15 8.1 83.0 1005.5 6.4 WNW 11.3 0.0
06:20 7.9 83.0 1005.5 6.4 WNW 12.9 0.0
06:25 7.9 83.0 1005.4 3.2 W 12.9 0.0
06:30 8.0 83.0 1005.7 8.0 W 9.7 0.0
06:35 8.3 83.0 1005.5 3.2 WSW 11.3 0.0
06:40 8.6 83.0 1005.5 6.4 WSW 8.0 0.0
06:45 8.8 83.0 1005.5 6.4 WSW 11.3 0.0
06:50 9.1 81.0 1005.7 4.8 WSW 12.9 0.0
06:55 9.3 81.0 1005.5 6.4 W 12.9 0.0
07:00 9.3 79.0 1005.7 9.7 SW 16.1 0.0
07:05 9.4 79.0 1005.5 9.7 W 16.1 0.0
07:10 9.4 79.0 1005.6 6.4 WSW 14.5 0.0
07:15 9.6 79.0 1005.8 6.4 WSW 14.5 0.0
07:20 9.7 79.0 1006.0 9.7 WSW 12.9 0.0
07:25 9.7 77.0 1006.0 3.2 W 14.5 0.0
07:30 9.9 78.0 1005.8 3.2 W 14.5 0.0
07:35 10.1 78.0 1005.8 1.6 S 12.9 0.0
07:40 10.2 76.0 1005.9 1.6 SSW 12.9 0.0
07:45 10.3 77.0 1005.9 4.8 S 12.9 0.0
07:50 10.4 77.0 1006.0 3.2 W 12.9 0.0
07:55 10.4 74.0 1006.2 8.0 WSW 12.9 0.0
08:00 10.6 73.0 1006.2 8.0 SSE 12.9 0.0
08:05 10.7 73.0 1006.4 6.4 SSW 12.9 0.0
08:10 10.8 71.0 1006.3 12.9 SSW 12.9 0.0
08:15 10.8 70.0 1006.2 4.8 SW 14.5 0.0
08:20 11.1 79.0 1006.4 0.0 SE 14.5 0.0
08:25 11.0 81.0 1006.4 4.8 SSE 12.9 0.0
08:30 10.7 82.0 1006.5 3.2 SSW 9.7 0.0
08:35 10.8 83.0 1006.4 8.0 ESE 12.9 0.0
08:40 10.4 83.0 1006.4 3.2 SSE 14.5 0.0
08:45 10.4 83.0 1006.4 6.4 E 12.9 0.0
08:50 10.6 83.0 1006.4 1.6 NE 12.9 0.0
08:55 10.8 83.0 1006.6 3.2 E 14.5 0.0
09:00 11.0 83.0 1006.5 1.6 ESE 14.5 0.0
09:05 11.1 83.0 1006.6 3.2 SSW 9.7 0.0
09:10 11.1 83.0 1006.7 4.8 E 9.7 0.0
09:15 10.8 83.0 1006.8 3.2 SE 9.7 0.0
09:20 10.6 83.0 1006.9 0.0 ENE 8.0 0.0
09:25 10.3 83.0 1006.8 9.7 ENE 9.7 0.0
09:30 10.4 83.0 1006.6 1.6 ENE 9.7 0.0
09:35 10.6 83.0 1006.7 3.2 NE 11.3 0.0
09:40 10.8 83.0 1006.8 0.0 ESE 11.3 0.0
09:45 11.4 82.0 1006.6 8.0 E 12.9 0.0
09:50 11.6 83.0 1006.9 6.4 ESE 12.9 0.0
09:55 11.5 83.0 1006.9 9.7 E 12.9 0.0
10:00 11.6 83.0 1006.8 4.8 E 12.9 0.0
10:05 11.6 83.0 1006.9 3.2 E 11.3 0.0
10:10 12.0 83.0 1006.7 11.3 E 11.3 0.0
10:15 11.8 83.0 1006.7 4.8 E 17.7 0.0
10:20 11.6 83.0 1006.6 9.7 ENE 17.7 0.0
10:25 11.3 83.0 1006.6 1.6 ESE 14.5 0.0
10:30 11.0 83.0 1006.7 1.6 SSE 9.7 0.0
10:35 10.8 83.0 1006.7 0.0 ESE 9.7 0.0
10:40 10.7 83.0 1006.6 6.4 E 6.4 0.0
10:45 10.6 83.0 1006.6 8.0 NE 11.3 0.0
10:50 10.5 82.0 1006.4 8.0 NE 9.7 0.0
10:55 10.4 81.0 1006.4 0.0 NE 9.7 0.0
11:00 10.4 81.0 1006.3 8.0 E 9.7 0.0
11:05 10.4 80.0 1006.3 3.2 E 12.9 0.0
11:10 10.4 81.0 1006.4 3.2 E 12.9 0.0
11:15 10.5 81.0 1006.3 8.0 ENE 11.3 0.0
11:20 10.7 80.0 1006.2 9.7 SSE 17.7 0.0
11:25 10.8 81.0 1006.2 1.6 SE 12.9 0.0
11:30 10.8 82.0 1006.2 9.7 E 17.7 0.0
11:35 10.8 82.0 1006.1 3.2 SSE 17.7 0.0
11:40 11.1 82.0 1006.1 9.7 E 12.9 0.0
11:45 11.1 83.0 1006.1 3.2 ESE 14.5 0.0
11:50 11.4 83.0 1006.1 8.0 NE 17.7 0.0
11:55 11.7 83.0 1006.2 6.4 SE 17.7 0.0
12:00 12.1 83.0 1006.3 0.0 SSE 12.9 0.0
12:05 11.9 81.0 1006.3 1.6 SW 16.1 0.0
12:10 11.8 82.0 1006.2 11.3 E 16.1 0.0
12:15 11.7 82.0 1006.4 1.6 ESE 16.1 0.0
12:20 11.6 82.0 1006.4 3.2 S 11.3 0.0
12:25 11.5 82.0 1006.5 9.7 E 9.7 0.0
12:30 11.8 83.0 1006.4 6.4 S 11.3 0.0
12:35 12.0 81.0 1006.4 8.0 E 12.9 0.0
12:40 11.9 81.0 1006.4 3.2 ESE 12.9 0.0
12:45 12.3 82.0 1006.2 6.4 ESE 11.3 0.0
12:50 12.3 79.0 1006.4 1.6 ESE 11.3 0.0
12:55 12.2 78.0 1006.2 1.6 E 8.0 0.0
13:00 12.6 80.0 1006.2 4.8 E 11.3 0.0
13:05 12.7 78.0 1006.2 0.0 E 11.3 0.0
13:10 12.7 78.0 1006.2 8.0 ENE 9.7 0.0
13:15 12.7 78.0 1006.1 6.4 NE 14.5 0.0
13:20 12.8 77.0 1006.1 1.6 ENE 14.5 0.0
13:25 13.1 79.0 1006.1 3.2 ESE 11.3 0.0
13:30 13.4 76.0 1005.9 0.0 S 9.7 0.0
13:35 13.6 77.0 1005.9 6.4 E 9.7 0.0
13:40 13.8 77.0 1005.8 8.0 E 12.9 0.0
13:45 13.4 76.0 1005.8 3.2 NE 12.9 0.0
13:50 13.0 76.0 1005.7 4.8 SE 11.3 0.0
13:55 12.8 81.0 1005.8 3.2 ENE 11.3 0.0
14:00 12.7 81.0 1005.8 6.4 ESE 11.3 0.0
14:05 12.6 82.0 1005.7 3.2 NE 9.7 0.0
14:10 12.4 81.0 1005.6 8.0 E 11.3 0.0
14:15 12.4 81.0 1005.4 1.6 ESE 11.3 0.0
14:20 12.4 80.0 1005.6 1.6 ESE 9.7 0.0
14:25 12.4 80.0 1005.4 8.0 ENE 11.3 0.0
14:30 12.4 81.0 1005.5 6.4 E 11.3 0.0
14:35 12.4 80.0 1005.5 3.2 E 9.7 0.0
14:40 12.4 81.0 1005.5 6.4 ESE 9.7 0.0
14:45 12.3 81.0 1005.3 1.6 ESE 8.0 0.0
14:50 12.7 79.0 1005.4 3.2 ESE 9.7 0.0
14:55 12.9 80.0 1005.6 3.2 ESE 9.7 0.0
15:00 12.8 78.0 1005.4 6.4 ENE 12.9 0.0
15:05 12.9 81.0 1005.6 6.4 ESE 12.9 0.0
15:10 13.4 81.0 1005.2 3.2 ESE 9.7 0.0
15:15 13.3 80.0 1005.4 6.4 WNW 9.7 0.0
15:20 13.2 78.0 1005.4 3.2 S 9.7 0.0
15:25 13.1 75.0 1005.3 6.4 S 9.7 0.0
15:30 13.1 76.0 1005.7 4.8 SE 9.7 0.0
15:35 13.2 78.0 1005.5 3.2 ENE 9.7 0.0
15:40 13.1 77.0 1005.6 9.7 ESE 9.7 0.0
15:45 12.8 81.0 1005.5 3.2 E 12.9 0.0
15:50 12.6 82.0 1005.4 4.8 E 8.0 0.0
15:55 12.4 82.0 1005.4 0.0 E 8.0 0.0
16:00 12.3 83.0 1005.6 3.2 E 9.7 0.0
16:05 12.2 83.0 1005.6 3.2 E 9.7 0.0
16:10 12.1 83.0 1005.5 6.4 E 9.7 0.0
16:15 12.1 83.0 1005.5 8.0 E 9.7 0.0
16:20 12.1 83.0 1005.6 6.4 E 11.3 0.0
16:25 11.9 83.0 1005.8 0.0 E 11.3 0.0
16:30 11.9 83.0 1005.7 3.2 E 9.7 0.0
16:35 12.0 83.0 1005.7 4.8 E 9.7 0.0
16:40 11.9 83.0 1005.7 6.4 E 11.3 0.0
16:45 11.7 83.0 1005.8 1.6 ENE 12.9 0.0
16:50 11.7 83.0 1005.8 6.4 E 12.9 0.0
16:55 11.8 83.0 1005.8 6.4 E 12.9 0.0
17:00 11.8 83.0 1006.0 1.6 E 12.9 0.0
17:05 11.7 83.0 1005.9 6.4 ENE 14.5 0.0
17:10 11.7 83.0 1006.0 3.2 ENE 14.5 0.0
17:15 11.5 83.0 1006.0 1.6 E 12.9 0.0
17:20 11.4 83.0 1006.0 6.4 E 11.3 0.0
17:25 11.3 83.0 1006.1 3.2 E 11.3 0.0
17:30 11.2 83.0 1006.0 3.2 E 11.3 0.0
17:35 11.1 83.0 1005.9 4.8 E 11.3 0.0
17:40 10.9 82.0 1006.0 6.4 E 9.7 0.0
17:45 10.8 81.0 1006.0 3.2 E 9.7 0.0
17:50 10.8 81.0 1006.2 3.2 E 8.0 0.0
17:55 10.7 80.0 1006.3 4.8 E 9.7 0.0
18:00 10.6 80.0 1006.1 1.6 ESE 9.7 0.0
18:05 10.5 79.0 1006.4 4.8 E 11.3 0.0
18:10 10.4 78.0 1006.6 8.0 E 11.3 0.0
18:15 10.4 77.0 1006.7 3.2 E 9.7 0.0
18:20 10.3 76.0 1006.8 6.4 E 9.7 0.0
18:25 10.3 75.0 1006.6 1.6 E 9.7 0.0
18:30 10.3 74.0 1006.7 4.8 E 9.7 0.0
18:35 10.3 73.0 1006.7 3.2 E 9.7 0.0
18:40 10.3 73.0 1007.0 1.6 E 9.7 0.0
18:45 10.2 72.0 1006.8 6.4 E 12.9 0.0
18:50 10.2 72.0 1007.0 0.0 E 12.9 0.0
18:55 10.3 71.0 1007.0 6.4 E 9.7 0.0
19:00 10.3 70.0 1007.0 4.8 E 11.3 0.0
19:05 10.2 70.0 1007.1 4.8 E 11.3 0.0
19:10 10.1 70.0 1007.2 8.0 NNE 11.3 0.0
19:15 10.1 70.0 1007.3 0.0 NE 11.3 0.0
19:20 10.0 69.0 1007.3 1.6 ENE 8.0 0.0
19:30 9.9 69.0 1007.2 4.8 E 12.9 0.0
19:35 9.8 69.0 1007.3 3.2 SE 12.9 0.0
19:40 9.8 69.0 1007.6 3.2 E 9.7 0.0
19:45 9.7 69.0 1007.6 0.0 E 9.7 0.0
19:50 9.7 69.0 1007.6 0.0 E 8.0 0.0
19:55 9.7 69.0 1007.7 4.8 E 8.0 0.0
20:00 9.6 68.0 1007.8 0.0 E 8.0 0.0
20:05 9.6 69.0 1007.9 3.2 E 4.8 0.0
20:10 9.6 69.0 1008.0 0.0 E 6.4 0.0
Máxima 13.8 84.0 1008.0 12.9 SSW 19.3 0.3
Mínima 6.0 68.0 1003.9
Total 0.3